Waarnemingen

Advertentie
Mijn weer
Carcassonne, Frankrijk (7635): temperatuur & dauwpunt: 19.04.2018 12:00:00 - 25.04.2018 12:00:00 (CEST)Carcassonne, Frankrijk (7635): temperatuur 5cm: 19.04.2018 12:00:00 - 25.04.2018 12:00:00 (CEST)Carcassonne, Frankrijk (7635): temperatuur -20cm & temperatuur -100cm: 19.04.2018 12:00:00 - 25.04.2018 12:00:00 (CEST)Carcassonne, Frankrijk (7635): windsnelheid & windstoten: 19.04.2018 12:00:00 - 25.04.2018 12:00:00 (CEST)Carcassonne, Frankrijk (7635): windrichting: 19.04.2018 12:00:00 - 25.04.2018 12:00:00 (CEST)Carcassonne, Frankrijk (7635): luchtdruk: 19.04.2018 12:00:00 - 25.04.2018 12:00:00 (CEST)Carcassonne, Frankrijk (7635): zicht: 19.04.2018 12:00:00 - 25.04.2018 12:00:00 (CEST)Carcassonne, Frankrijk (7635): Zonneschijnduur: 19.04.2018 12:00:00 - 25.04.2018 12:00:00 (CEST)Carcassonne, Frankrijk (7635): neerslag: 19.04.2018 12:00:00 - 25.04.2018 12:00:00 (CEST)
Datum & Tijd tt [°C] td [°C] tt 5cm [°C] tt -20cm [°C] tt -100cm [°C] ff [km/u] ff [kn] fx [km/u] fx [kn] dd ppp [hPa] vv [km] sd [min] rr [mm]
25.04.2018 12:00:00 16,1 12,5 15,2 16,9 14,7 22 12 37 20 W 1021,6 17 7 0,0
25.04.2018 11:00:00 14,6 13,5 14,7 16,9 14,6 20 11 33 18 WNW 1022,0 8 0 0,0
25.04.2018 10:00:00 14,7 14,1 14,3 17,0 14,7 19 10 33 18 W 1021,5 5 0 0,2
25.04.2018 09:00:00 14,7 14,1 14,3 17,1 14,7 19 10 31 17 W 1020,5 4,5 0 0,0
25.04.2018 08:00:00 14,6 13,8 12,8 17,3 14,6 13 7 37 20 W 1019,5 3,5 0 0,0
25.04.2018 07:00:00 13,7 11,9 10,6 17,5 14,6 14 8 27 14 W 1018,5 16 0 0,0
25.04.2018 06:00:00 11,8 11,2 7,8 17,8 14,6 8 4 15 8 W 1017,6 13 0 0,0
25.04.2018 05:00:00 11,2 10,1 8,0 18,0 14,6 2 1 4 2 W 1017,3 9 0 0,0
25.04.2018 04:00:00 11,5 10,2 8,5 18,3 14,6 2 1 6 3 ZW 1017,0 10 0 0,0
25.04.2018 03:00:00 12,4 11,1 9,2 18,6 14,6 3 2 5 3 ZW 1017,1 12 0 0,0
25.04.2018 02:00:00 13,3 10,7 10,3 18,8 14,6 0 0 12 6 N 1017,5 18 0 0,0
25.04.2018 01:00:00 14,3 11,1 11,1 19,1 14,6 3 2 13 7 ZZW 1017,5 30 0 0,0
25.04.2018 00:00:00 15,7 12,1 11,5 19,4 14,6 6 3 9 5 Z 1017,6 32 0 0,0
24.04.2018 23:00:00 16,9 12,6 12,2 19,7 14,6 0 0 6 3 N 1017,3 33 0 0,0
24.04.2018 22:00:00 19,7 12,7 14,6 19,8 14,6 6 4 13 7 O 1016,7 34 0 0,0
24.04.2018 21:00:00 20,5 13,0 16,4 20,0 14,6 7 4 13 7 W 1016,0 30 21 0,0
24.04.2018 20:00:00 23,8 12,7 22,1 20,0 14,6 10 5 17 9 W 1015,4 20 60 0,0
24.04.2018 19:00:00 25,9 11,6 27,5 19,8 14,6 11 6 18 10 W 1015,6 20 60 0,0
24.04.2018 18:00:00 26,3 13,4 30,5 19,5 14,5 8 4 15 8 W 1015,8 19 60 0,0
24.04.2018 17:00:00 26,5 13,6 32,1 19,0 14,5 8 4 16 8 WNW 1016,3 20 60 0,0
24.04.2018 16:00:00 26,5 14,3 32,7 18,4 14,5 3 2 11 6 WZW 1017,0 19 60 0,0
24.04.2018 15:00:00 24,7 14,8 29,9 17,7 14,5 6 4 18 10 WNW 1017,8 19 60 0,0
24.04.2018 14:00:00 23,0 15,3 28,1 17,0 14,5 12 6 23 12 WNW 1018,5 14 60 0,0
24.04.2018 13:00:00 21,4 16,8 25,8 16,4 14,5 14 7 24 13 NW 1019,5 12 60 0,0
24.04.2018 12:00:00 19,1 16,0 21,7 15,9 14,5 14 7 22 12 WNW 1020,1 11 60 0,0
24.04.2018 11:00:00 17,7 15,5 18,6 15,7 14,5 14 8 22 12 NW 1020,5 7 60 0,0
24.04.2018 10:00:00 16,2 14,7 15,8 15,6 14,5 16 8 22 12 W 1020,7 7 50 0,0
24.04.2018 09:00:00 14,3 13,5 12,4 15,7 14,5 3 2 21 11 Z 1020,7 18 32 0,0
24.04.2018 08:00:00 11,9 11,4 7,8 15,8 14,5 0 0 7 4 N 1020,5 8 22 0,0
24.04.2018 07:00:00 10,8 10,2 7,8 16,0 14,5 0 0 9 5 N 1020,2 2,8 0 0,0
24.04.2018 06:00:00 11,9 11,3 9,1 16,1 14,5 7 4 12 7 ZZW 1019,8 4,1 0 0,0
24.04.2018 05:00:00 12,2 11,7 8,8 16,4 14,5 8 5 13 7 ZZW 1020,2 3,2 0 0,0
24.04.2018 04:00:00 12,0 11,4 8,6 16,5 14,5 3 2 6 3 ZW 1020,6 2,6 0 0,2
24.04.2018 03:00:00 12,7 12,1 9,2 16,7 14,5 4 2 8 5 Z 1020,8 2,9 0 0,0
24.04.2018 02:00:00 12,5 11,7 9,6 16,8 14,5 3 2 9 5 WZW 1020,8 2,3 0 0,0
24.04.2018 01:00:00 13,4 12,5 10,4 17,0 14,5 0 0 11 6 N 1020,7 3,2 0 0,0
24.04.2018 00:00:00 14,1 13,1 11,0 17,1 14,5 6 3 9 5 ZZW 1020,7 2,5 0 0,0
23.04.2018 23:00:00 14,9 13,9 13,1 17,2 14,4 6 3 15 8 ZZW 1020,8 3,1 0 0,0
23.04.2018 22:00:00 15,2 14,1 13,1 17,4 14,5 10 5 14 8 Z 1019,9 6 0 0,0
23.04.2018 21:00:00 15,9 14,6 14,9 17,4 14,4 10 5 16 9 WZW 1019,7 3,0 0 0,0
23.04.2018 20:00:00 16,8 15,5 15,9 17,4 14,4 5 3 9 5 ZW 1019,5 2,5 0 0,2
23.04.2018 19:00:00 17,0 14,6 15,5 17,4 14,4 4 2 23 12 WZW 1020,2 6 0 1,2
23.04.2018 18:00:00 18,0 14,1 16,5 17,4 14,4 13 7 29 16 ZW 1020,2 12 0 0,0
23.04.2018 17:00:00 19,4 13,3 19,0 17,3 14,4 16 9 26 14 NW 1019,1 20 0 0,0
23.04.2018 16:00:00 19,6 12,8 19,6 17,2 14,4 11 6 22 12 W 1019,9 20 0 0,0
23.04.2018 15:00:00 19,6 12,8 19,6 17,0 14,4 10 5 24 13 W 1020,2 19 0 0,0
23.04.2018 14:00:00 20,0 13,2 20,7 16,8 14,4 14 8 26 14 W 1020,2 19 0 0,0
23.04.2018 13:00:00 18,9 13,7 19,7 16,5 14,4 11 6 23 12 W 1020,6 19 0 0,0
23.04.2018 12:00:00 18,1 12,8 18,6 16,4 14,4 11 6 19 10 W 1020,4 18 6 0,0
23.04.2018 11:00:00 16,4 12,9 18,1 16,3 14,3 8 4 15 8 WNW 1020,4 16 0 0,0
23.04.2018 10:00:00 14,8 13,7 14,7 16,3 14,3 5 3 11 6 WZW 1020,3 12 0 0,0
23.04.2018 09:00:00 12,7 12,1 11,7 16,4 14,3 0 0 5 3 N 1020,4 6 9 0,0
23.04.2018 08:00:00 11,4 10,9 8,0 16,6 14,4 4 2 7 4 Z 1020,2 6 19 0,0
23.04.2018 07:00:00 9,9 9,1 7,6 16,8 14,3 4 2 10 5 NW 1020,0 3,6 0 0,0
23.04.2018 06:00:00 10,7 9,9 7,5 17,0 14,3 3 1 5 3 Z 1019,4 2,9 0 0,0
23.04.2018 05:00:00 11,2 10,3 7,8 17,2 14,3 2 1 4 2 WNW 1019,2 2,2 0 0,0
23.04.2018 04:00:00 12,1 11,2 8,6 17,4 14,3 2 1 8 4 OZO 1018,7 4,0 0 0,0
23.04.2018 03:00:00 12,3 11,0 9,2 17,6 14,3 3 2 8 4 ONO 1018,7 4,8 0 0,0
23.04.2018 02:00:00 13,0 11,2 10,5 17,8 14,2 7 4 10 5 ONO 1018,6 10 0 0,0
23.04.2018 01:00:00 14,3 12,0 12,5 18,0 14,2 5 3 18 10 NO 1018,6 16 0 0,0
23.04.2018 00:00:00 15,7 11,9 14,2 18,2 14,2 7 4 20 11 OZO 1018,2 20 0 0,0
22.04.2018 23:00:00 16,0 12,0 14,5 18,4 14,3 11 6 19 11 O 1017,8 19 0 0,0
22.04.2018 22:00:00 17,1 11,1 15,7 18,6 14,2 9 5 26 14 ZO 1017,6 20 0 0,0
22.04.2018 21:00:00 17,9 11,9 16,8 18,7 14,2 20 11 29 16 O 1016,4 19 0 0,0
22.04.2018 20:00:00 19,7 11,5 18,8 18,7 14,2 16 8 38 20 O 1015,7 31 40 0,0
22.04.2018 19:00:00 22,2 9,7 23,0 18,6 14,2 25 13 43 23 O 1015,2 20 51 0,0
22.04.2018 18:00:00 22,9 10,3 25,7 18,4 14,2 26 14 39 21 O 1014,8 20 60 0,0
22.04.2018 17:00:00 24,0 11,3 28,0 18,0 14,2 20 11 39 21 O 1014,7 19 60 0,0
22.04.2018 16:00:00 23,2 13,4 24,8 17,7 14,1 23 12 36 19 O 1015,5 20 20 0,0
22.04.2018 15:00:00 22,5 13,3 25,5 17,3 14,2 24 13 37 20 O 1016,1 20 42 0,0
22.04.2018 14:00:00 22,0 13,4 22,6 17,0 14,1 21 11 31 17 O 1016,6 42 22 0,0
22.04.2018 13:00:00 20,4 12,4 22,9 16,8 14,2 12 7 26 14 O 1017,3 20 0 0,0
22.04.2018 12:00:00 19,9 11,9 21,9 16,6 14,1 16 9 27 15 O 1017,7 20 38 0,0
22.04.2018 11:00:00 18,7 11,0 20,0 16,5 14,1 13 7 23 12 O 1017,8 19 0 0,0
22.04.2018 10:00:00 17,4 12,3 17,1 16,5 14,1 12 7 22 12 O 1017,6 20 0 0,0
22.04.2018 09:00:00 14,4 11,4 14,1 16,6 14,1 0 0 5 3 N 1017,6 18 25 0,0
22.04.2018 08:00:00 13,5 10,7 13,3 16,7 14,1 3 1 16 9 NNW 1017,2 18 41 0,0
22.04.2018 07:00:00 14,4 12,1 13,1 16,9 14,0 9 5 21 12 OZO 1016,5 17 0 0,0
22.04.2018 06:00:00 14,1 12,1 11,9 17,0 14,0 10 6 24 13 O 1016,4 15 0 0,0
22.04.2018 05:00:00 14,5 10,3 12,8 17,2 14,0 11 6 26 14 OZO 1016,5 20 0 0,0
22.04.2018 04:00:00 15,3 9,9 10,9 17,4 14,0 10 6 28 15 OZO 1016,5 29 0 0,0
22.04.2018 03:00:00 13,3 8,4 10,4 17,7 14,0 8 4 14 8 O 1016,9 31 0 0,0
22.04.2018 02:00:00 13,8 9,0 12,3 17,9 14,0 8 5 16 9 O 1017,3 29 0 0,0
22.04.2018 01:00:00 15,9 7,9 13,6 18,1 13,9 7 4 22 12 O 1017,3 37 0 0,0
22.04.2018 00:00:00 16,8 8,5 15,2 18,3 14,0 10 5 21 12 OZO 1017,3 37 0 0,0
21.04.2018 23:00:00 16,4 9,3 15,0 18,6 14,0 15 8 22 12 O 1017,7 33 0 0,0
21.04.2018 22:00:00 17,1 8,5 15,4 18,8 13,9 14 8 32 17 O 1017,7 35 0 0,0
21.04.2018 21:00:00 19,0 7,1 17,7 18,9 13,9 22 12 35 19 O 1017,1 46 18 0,0
21.04.2018 20:00:00 20,9 7,5 20,3 19,0 13,9 25 14 44 24 O 1016,9 45 60 0,0
21.04.2018 19:00:00 22,5 7,5 23,9 19,0 13,9 31 17 46 25 O 1016,7 40 60 0,0
21.04.2018 18:00:00 24,0 8,0 27,2 18,8 13,9 28 15 48 26 O 1016,7 34 60 0,0
21.04.2018 17:00:00 24,7 7,8 28,7 18,4 13,9 35 19 47 25 O 1016,7 34 60 0,0
21.04.2018 16:00:00 25,2 8,2 29,9 17,9 13,9 29 16 50 27 ONO 1017,1 23 60 0,0
21.04.2018 15:00:00 25,2 9,1 30,1 17,3 13,9 30 16 49 27 O 1017,5 20 60 0,0
21.04.2018 14:00:00 24,4 10,7 29,2 16,7 13,8 30 16 48 26 O 1017,9 24 60 0,0
21.04.2018 13:00:00 23,4 11,1 27,6 16,2 13,8 25 13 38 20 O 1018,8 28 60 0,0
21.04.2018 12:00:00 22,2 10,0 25,5 15,9 13,8 24 13 34 18 O 1019,5 31 60 0,0
21.04.2018 11:00:00 20,5 9,4 22,3 15,7 13,8 20 11 29 15 O 1019,8 32 60 0,0
21.04.2018 10:00:00 18,0 9,9 18,7 15,6 13,8 9 5 17 9 O 1020,1 20 60 0,0
21.04.2018 09:00:00 15,4 8,8 11,6 15,8 13,8 2 1 8 5 O 1020,5 20 60 0,0
21.04.2018 08:00:00 11,8 8,5 7,7 16,0 13,8 4 2 12 6 NNO 1020,6 19 39 0,0
21.04.2018 07:00:00 10,9 7,0 6,8 16,2 13,8 6 4 10 5 O 1020,2 19 0 0,0
21.04.2018 06:00:00 11,4 8,1 6,4 16,4 13,8 6 3 11 6 O 1019,7 19 0 0,0
21.04.2018 05:00:00 11,6 8,1 6,8 16,6 13,8 0 0 14 7 N 1020,0 23 0 0,0
21.04.2018 04:00:00 12,8 7,7 8,4 16,9 13,7 9 5 15 8 O 1020,4 28 0 0,0
21.04.2018 03:00:00 13,0 7,2 8,0 17,1 13,8 4 2 18 10 NNO 1020,6 34 0 0,0
21.04.2018 02:00:00 13,2 7,6 11,6 17,3 13,7 12 6 24 13 O 1021,0 34 0 0,0
21.04.2018 01:00:00 15,3 8,5 11,1 17,6 13,7 17 9 25 14 O 1020,9 33 0 0,0
21.04.2018 00:00:00 15,5 7,0 11,4 17,8 13,7 6 4 22 12 O 1021,0 44 0 0,0
20.04.2018 23:00:00 15,7 7,2 12,9 18,0 13,7 9 5 20 11 O 1021,2 47 0 0,0
20.04.2018 22:00:00 16,9 7,8 15,5 18,2 13,7 18 10 31 17 O 1021,2 50 0 0,0
20.04.2018 21:00:00 19,0 7,7 17,4 18,4 13,7 17 9 34 19 O 1020,6 55 17 0,0
20.04.2018 20:00:00 20,8 7,4 20,1 18,4 13,7 22 12 48 26 O 1020,0 42 60 0,0
20.04.2018 19:00:00 22,2 7,6 23,7 18,4 13,7 31 17 49 26 O 1020,0 30 60 0,0
20.04.2018 18:00:00 23,4 7,9 26,2 18,2 13,7 37 20 53 29 O 1020,0 27 60 0,0
20.04.2018 17:00:00 24,0 7,6 27,6 17,9 13,6 34 18 50 27 O 1020,3 23 60 0,0
20.04.2018 16:00:00 24,6 8,1 28,7 17,4 13,6 31 17 50 27 O 1021,0 24 60 0,0
20.04.2018 15:00:00 24,4 7,1 28,5 16,8 13,6 33 18 48 26 O 1021,5 25 60 0,0
20.04.2018 14:00:00 24,0 8,4 27,5 16,3 13,6 29 16 44 24 O 1022,0 25 60 0,0
20.04.2018 13:00:00 22,3 8,4 25,8 15,8 13,6 27 15 44 24 O 1022,7 24 60 0,0
20.04.2018 12:00:00 21,6 8,1 23,3 15,5 13,6 31 17 43 23 O 1023,0 28 60 0,0
20.04.2018 11:00:00 20,0 9,0 19,0 15,4 13,6 27 14 39 21 O 1022,9 27 51 0,0
20.04.2018 10:00:00 17,6 8,7 15,9 15,4 13,6 24 13 36 19 O 1022,9 23 41 0,0
20.04.2018 09:00:00 15,5 8,5 12,8 15,5 13,5 13 7 18 10 O 1023,0 34 58 0,0
20.04.2018 08:00:00 13,1 8,2 11,1 15,7 13,6 10 6 20 11 O 1023,0 21 27 0,0
20.04.2018 07:00:00 13,1 8,2 11,7 15,8 13,5 9 5 33 18 OZO 1022,8 23 0 0,0
20.04.2018 06:00:00 13,1 8,0 11,9 16,0 13,5 16 8 30 16 OZO 1022,9 27 0 0,0
20.04.2018 05:00:00 13,4 7,4 12,2 16,2 13,5 15 8 25 13 O 1023,1 32 0 0,0
20.04.2018 04:00:00 13,8 7,1 12,0 16,4 13,5 14 8 22 12 O 1023,4 37 0 0,0
20.04.2018 03:00:00 15,0 6,0 13,1 16,6 13,5 11 6 24 13 O 1023,4 51 0 0,0
20.04.2018 02:00:00 15,5 6,0 13,2 16,8 13,5 10 5 19 11 OZO 1023,8 60 0 0,0
20.04.2018 01:00:00 15,7 6,7 10,2 17,1 13,5 8 5 14 7 ZO 1024,1 58 0 0,0
20.04.2018 00:00:00 16,4 6,8 12,7 17,2 13,5 6 3 23 12 ZO 1024,0 57 0 0,0
19.04.2018 23:00:00 16,9 7,3 14,5 17,5 13,5 7 4 28 15 OZO 1024,1 20 0 0,0
19.04.2018 22:00:00 17,7 7,7 16,3 17,7 13,4 19 10 36 19 O 1023,9 56 0 0,0
19.04.2018 21:00:00 18,6 7,7 17,2 17,8 13,4 22 12 36 20 O 1023,5 59 16 0,0
19.04.2018 20:00:00 19,7 7,7 19,2 17,9 13,4 27 14 45 25 O 1023,4 39 60 0,0
19.04.2018 19:00:00 21,3 7,9 22,6 17,9 13,4 29 16 49 26 O 1023,3 52 60 0,0
19.04.2018 18:00:00 22,7 8,0 25,4 17,7 13,4 29 15 50 27 O 1023,1 47 60 0,0
19.04.2018 17:00:00 23,2 8,8 26,8 17,4 13,4 32 18 49 27 O 1023,4 20 60 0,0
19.04.2018 16:00:00 23,4 9,4 27,9 16,9 13,4 34 18 50 27 O 1023,7 33 60 0,0
19.04.2018 15:00:00 23,5 9,1 27,8 16,4 13,4 34 18 52 28 O 1024,2 26 60 0,0
19.04.2018 14:00:00 23,4 9,8 27,2 15,9 13,4 32 18 49 27 O 1024,6 27 60 0,0
19.04.2018 13:00:00 22,3 9,8 25,7 15,5 13,4 32 18 44 24 O 1025,3 20 60 0,0
19.04.2018 12:00:00 21,2 10,1 23,0 15,1 13,3 23 12 40 22 O 1025,8 34 60 0,0

tt = temperatuur
td = dauwpunt
tt 5cm = temperatuur 5cm
tt -20cm = temperatuur -20cm
tt -100cm = temperatuur -100cm
ff = windsnelheid
fx = windstoten
dd = windrichting
ppp = luchtdruk
vv = zicht
sd = Zonneschijnduur
rr = neerslag

Weerstations in de omgeving